Temp
60 61 59 57 59 60 59 60 60 62 64 64 65 66 66 68 67 65 65 63 63 67
59 59 59 61 61 61 60 61 61 62 63 66 66 66 66 66 64 65 65 65 63 65
60 60 63 62 61 63 64 65 64 65 66 66 66 66 64 66 64 63 65 66 63 63
61 62 64 64 64 64 64 65 65 65 65 65 65 65 64 64 64 63 63 64 63 62
63 65 64 64 65 66 64 65 65 65 65 65 65 65 64 64 64 63 62 63 63 63
64 64 64 64 65 66 66 65 65 65 64 64 64 65 65 65 64 64 64 64 63 63
64 64 65 65 66 66 66 65 65 64 65 65 65 64 64 65 64 64 64 64 64 64
65 66 65 65 65 66 66 66 65 65 65 64 65 62 58 61 63 63 63 63 64 64
66 66 64 64 65 65 66 65 65 64 64 63 66 49 48 52 62 63 62 61 62 63
64 64 64 65 65 64 63 64 62 63 63 62 63 47 46 48 64 63 62 61 61 62
64 64 65 64 63 62 64 62 62 62 62 63 62 47 46 47 64 64 63 62 62 60
64 65 64 62 61 62 62 62 62 64 62 62 63 47 45 50 64 63 63 64 63 61
65 64 63 62 62 62 64 62 67 64 64 57 62 47 45 50 65 62 63 64 63 49
67 65 65 65 65 64 64 63 63 63 63 64 61 61 46 45 60 63 62 64 64 64
MSLP
1023.36 1023.10 1023.06 1022.98 1022.52 1021.97 1021.70 1021.22 1021.12 1020.29 1019.88 1019.57 1019.33 1018.92 1018.70 1018.31 1018.19 1018.18 1017.81 1017.72 1017.49 1016.46
1023.67 1023.46 1023.34 1022.93 1022.41 1021.91 1021.75 1021.30 1021.16 1020.74 1020.24 1019.83 1019.64 1019.44 1018.97 1018.87 1018.89 1018.56 1018.17 1017.81 1017.86 1017.24
1023.68 1023.55 1023.19 1022.79 1022.48 1022.10 1021.73 1021.34 1021.05 1020.65 1020.38 1020.17 1019.97 1019.88 1019.61 1019.18 1019.32 1019.00 1018.67 1018.28 1018.19 1017.84
1023.60 1023.36 1023.03 1022.69 1022.49 1022.22 1021.98 1021.69 1021.35 1021.08 1020.76 1020.49 1020.24 1020.20 1020.07 1019.80 1019.59 1019.30 1019.05 1018.77 1018.35 1018.03
1023.43 1023.17 1023.05 1022.91 1022.60 1022.30 1022.08 1021.88 1021.64 1021.35 1021.05 1020.76 1020.54 1020.35 1020.17 1019.86 1019.69 1019.42 1019.16 1018.89 1018.53 1018.14
1023.32 1023.21 1023.06 1022.86 1022.70 1022.36 1022.11 1021.93 1021.80 1021.52 1021.25 1020.99 1020.70 1020.45 1020.20 1020.04 1019.69 1019.37 1019.03 1018.88 1018.61 1018.22
1023.33 1023.22 1022.99 1022.78 1022.51 1022.27 1022.09 1022.02 1021.91 1021.72 1021.40 1021.11 1021.01 1021.05 1020.77 1020.35 1019.97 1019.60 1019.21 1018.95 1018.59 1018.17
1023.35 1023.18 1022.99 1022.79 1022.55 1022.33 1022.08 1022.01 1021.98 1021.75 1021.50 1021.38 1021.22 1021.99 1022.02 1021.18 1020.30 1019.78 1019.33 1018.98 1018.62 1018.24
1023.21 1023.00 1022.95 1022.79 1022.50 1022.25 1022.04 1022.06 1022.03 1021.92 1021.76 1021.79 1021.75 1022.67 1022.50 1022.01 1020.72 1019.98 1019.51 1019.14 1018.88 1018.59
1023.12 1022.96 1022.90 1022.70 1022.45 1022.33 1022.18 1022.06 1022.13 1022.08 1022.03 1022.06 1022.32 1022.76 1022.49 1021.96 1020.70 1020.02 1019.74 1019.51 1019.22 1018.85
1023.00 1022.82 1022.76 1022.58 1022.55 1022.46 1022.26 1022.23 1022.20 1022.15 1022.18 1022.12 1022.41 1022.77 1022.53 1021.77 1020.60 1019.99 1019.61 1019.43 1019.22 1019.31
1022.94 1022.75 1022.60 1022.62 1022.69 1022.61 1022.45 1022.34 1022.26 1022.20 1022.10 1022.08 1022.15 1022.56 1022.52 1022.05 1020.23 1019.80 1019.44 1019.07 1019.06 1019.25
1022.90 1022.81 1022.72 1022.81 1022.75 1022.63 1022.41 1022.27 1021.91 1021.92 1021.87 1021.95 1021.87 1022.23 1022.37 1022.21 1020.67 1019.87 1019.32 1018.68 1018.58 1019.09
1022.75 1022.75 1022.72 1022.66 1022.59 1022.41 1022.19 1022.04 1021.80 1021.57 1021.49 1021.43 1021.51 1021.69 1021.98 1022.19 1021.52 1020.36 1019.52 1018.53 1018.19 1018.38
Wind_Speed
8 7 7 7 6 6 6 6 7 7 8 8 9 9 8 8 8 8 7 10 10 8
7 7 6 6 6 6 7 6 6 6 7 9 10 10 9 8 9 9 8 9 10 9
5 6 5 6 8 9 9 10 9 9 8 8 9 10 10 8 9 9 8 7 9 10
5 3 6 6 7 8 8 9 9 8 7 8 8 9 8 7 8 9 9 9 9 10
5 5 6 6 6 7 8 8 8 7 7 8 7 6 7 7 7 9 9 10 10 10
5 5 5 5 5 6 7 8 9 7 8 7 7 6 6 7 8 10 9 9 10 11
4 4 5 5 4 5 5 7 9 8 7 8 9 10 12 11 10 10 10 10 10 10
3 3 5 6 5 4 4 6 7 8 7 7 7 9 11 11 11 10 11 11 11 12
2 3 5 5 6 4 4 5 6 8 8 8 7 10 12 11 9 10 11 11 12 13
4 4 5 4 6 6 5 4 5 6 6 7 8 11 12 13 8 9 9 11 11 13
4 4 3 4 5 5 4 4 5 5 5 6 7 9 11 15 8 10 9 9 10 12
3 2 5 5 5 5 5 4 3 3 4 6 6 6 9 13 11 10 10 8 10 8
4 4 5 5 4 4 3 4 3 2 3 1 6 6 6 9 10 10 10 9 9 8
3 2 1 1 1 2 3 4 3 4 5 6 4 4 1 5 9 8 10 9 9 9
Wind_Direction
15 31 27 25 18 19 22 7 7 4 14 21 23 22 17 34 15 26 19 22 16 350
39 42 36 23 9 26 35 26 29 34 36 42 35 26 1 33 12 3 10 17 8 344
35 54 22 36 35 35 32 35 40 43 43 41 35 30 14 25 37 31 25 25 22 8
58 65 29 33 35 32 35 26 27 25 20 17 21 32 33 35 31 30 24 15 11 13
51 25 35 35 37 39 38 31 23 17 16 17 13 16 18 14 14 12 5 1 356 360
53 43 39 36 34 40 31 32 26 16 22 16 16 12 11 4 358 355 357 359 348 346
41 4 4 349 347 13 20 22 24 21 24 20 33 19 1 358 352 352 353 351 342 347
2 351 1 360 343 343 355 24 19 20 23 20 40 25 354 347 347 351 346 348 352 1
320 341 358 5 8 348 2 28 16 24 29 30 40 10 0 346 332 352 5 358 356 340
318 322 332 347 6 19 15 27 22 23 23 20 30 14 354 343 347 360 6 0 359 346
321 330 314 1 20 21 37 29 19 16 13 8 55 22 353 332 342 19 360 355 1 353
24 58 66 51 38 35 21 14 9 13 3 10 4 43 4 338 325 15 341 351 12 353
102 86 77 57 51 47 11 51 338 351 358 31 330 80 10 344 325 358 335 348 2 113
159 139 90 326 345 359 354 340 343 332 321 297 315 332 25 332 309 347 328 334 346 3